sat.trackr.live / text

‹ back to catalog

UNKNOWN

NORAD 81812

UNKNOWN UNKNOWN UNKNOWN

§ Identity

Operator
Country
Launch date
Launch site
Launch vehicle
Mass (kg)
RCS (m²)

External: N2YO · Heavens-Above

§ Orbital elements

Epoch: 2026-05-23T13:36:05.427936Z

Period
116.23 min
Inclination
103.7782°
Eccentricity
0.0312656
Mean motion
12.38881107 rev/d
Perigee alt
1,264.7 km
Apogee alt
1,758.0 km
Semi-major
7,889.5 km
B*
-1.1023e-3
RAAN
81.0919°
Arg perigee
332.3271°
Mean anomaly
26.1447°
Rev number
56,059

§ Raw data

UNKNOWN1 81812U          26143.56672949 -.00000228  00000+0 -11023-2 0  99962 81812 103.7782  81.0919 0312656 332.3271  26.1447 12.38881107560590

JSON: /api/v1/satellites/81812 · /tle

For live sub-satellite position, see the globe view (requires WebGL).

§ Visibility from observer

Set your observer location to see the next 7 days of passes ≥ 10°. The values pass through the URL so the page stays shareable.

No JS? Fill the form by hand. The geolocation button needs JavaScript.